Location: *
(49.4341°S, 178.4355°W)
Time: 05:17:38
(UTC+00:00)

Daily predictions for brighter satellites

Satellite Brightness Start Highest point End
(mag) Time Altitude Azimuth Time Altitude Azimuth Time Altitude Azimuth
COSMOS 2455 3.1 06:36:09 10° SW 06:42:14 77° WNW 06:48:15 10° NNE
Cosmos 2266 Rocket 4.2 06:37:28 10° SSW 06:43:37 79° W 06:49:44 10° N
Cosmos 1975 3.1 06:41:48 10° S 06:45:24 41° ESE 06:48:57 10° NNE
Cosmos 44 3.2 06:43:42 10° NW 06:48:23 86° SW 06:52:51 10° SE
NOSS 3-1 (A) 3.5 06:43:59 10° SW 06:50:55 84° NW 06:56:15 10° NE
Cosmos 1452 Rocket 3.7 06:49:06 10° N 06:54:10 51° ENE 06:59:19 10° SSE
Meteor 1-19 Rocket 4.5 06:51:54 10° N 06:57:36 56° E 07:03:31 10° SSE
CZ-4 R/B 4.3 06:54:58 10° SSE 06:59:01 67° E 07:03:01 10° N
SAR-Lupe-4 4.1 06:56:06 10° SSE 06:59:31 37° E 07:02:53 10° NNE
SJ-6F 4.3 06:55:39 10° SSE 06:59:41 71° ENE 07:03:39 10° N
ATLAS 5 CENTAUR R/B 3.4 06:55:14 10° SW 07:00:51 31° SSE 07:05:39 10° E
Cosmos 1536 3.9 06:57:26 10° SSW 07:01:02 46° W 07:04:38 10° NNW
Meteor 1-14 Rocket 4.3 06:59:05 10° SSW 07:04:44 84° W 07:10:19 10° N
Cosmos 1110 Rocket 4.1 07:02:12 10° NNW 07:07:32 90° W 07:12:54 10° SSE
Cosmos 2221 2.4 07:04:27 10° N 07:08:38 83° E 07:12:55 10° S
Cosmos 1553 Rocket 4.4 07:05:57 10° NNE 07:11:55 43° E 07:17:59 10° SSE
Cosmos 1818 4.2 07:07:53 10° SSW 07:13:03 42° SE 07:17:27 14° ENE
Meteor 1-27 Rocket 4.1 07:08:02 10° NNE 07:13:30 42° E 07:18:55 10° SSE
Cosmos 1655 Rocket 4.1 07:07:26 10° S 07:13:48 89° W 07:20:09 10° N
Thor Agena Rocket 4.1 07:11:49 10° S 07:16:55 63° WSW 07:22:01 10° NNW
ARIANE 5 R/B 2.9 07:11:48 10° SSE 07:17:02 73° WSW 07:22:07 10° NNW
Cosmos 1766 Rocket 3.9 07:14:43 10° S 07:18:54 42° ESE 07:23:02 10° NNE
SL-08 R/B 3.6 07:16:59 10° NNE 07:21:56 80° WNW 07:26:58 10° SSW
Spot 4 Rocket 4.1 07:21:37 10° SSE 07:26:44 53° E 07:31:45 10° N
CARTOSAT-1 3.5 07:22:57 10° SSE 07:27:14 62° E 07:31:26 10° N
ATLAS 2AS CENTAUR R/B 3.3 07:22:02 10° N 07:28:19 35° ENE 07:34:48 10° SE
CZ-2D R/B 3.3 07:24:49 10° SSE 07:28:49 65° ENE 07:32:51 10° N
YAOGAN 11 4.1 07:25:11 10° NNE 07:29:29 84° WNW 07:33:52 10° SSW
Cosmos 1331 Rocket 4.5 07:25:34 10° NW 07:30:44 64° WSW 07:35:57 10° SSE
Cosmos 1833 Rocket 2.7 07:26:38 10° NNW 07:32:19 87° ENE 07:38:03 10° SSE
Meteor 2-10 Rocket 4.5 07:27:21 10° S 07:32:28 34° ESE 07:36:05 18° ENE
Meteor 1-11 Rocket 3.8 07:27:18 10° SSW 07:33:03 81° W 07:38:37 10° N
USA 229 DEB 4.1 07:28:17 10° SW 07:34:53 45° SSE 07:39:07 19° E
USA 229 4.1 07:28:22 10° SW 07:34:56 45° SSE 07:39:10 19° E
Cosmos 1745 Rocket 4.4 07:30:32 10° S 07:36:26 43° ESE 07:41:14 15° NE
Cosmos 2219 Rocket 4.4 07:35:56 10° S 07:37:53 12° SSE 07:39:50 10° SE
Resurs 01 Rocket 1.6 07:34:38 10° SSE 07:39:06 60° E 07:43:29 10° N
Okean 3 Rocket 4.5 07:38:21 10° S 07:42:30 32° ESE 07:44:20 24° ENE
Cosmos 1992 Rocket 4.2 07:39:50 10° N 07:44:48 46° ENE 07:49:50 10° SSE
SJ-7 4.1 07:41:04 10° SSE 07:44:52 87° ENE 07:48:35 10° NNW
Cosmos 2333 Rocket 3.8 07:40:45 10° S 07:45:09 21° SE 07:48:04 15° ESE
PSLV R/B 3.3 07:44:17 10° SSE 07:48:31 77° ENE 07:52:39 10° N
Cosmos 2082 Rocket 2.9 07:45:54 10° NNE 07:50:43 29° ENE 07:55:33 10° SE
NOAA 6 4.0 07:46:17 10° SSE 07:51:33 78° ENE 07:56:45 10° N
YAOGAN 1 3.4 07:47:25 10° S 07:51:40 53° WSW 07:55:51 10° NNW
Cosmos 1697 Rocket 3.4 07:51:24 10° SW 07:56:54 52° WNW 08:02:22 10° N
SJ-6B 2.4 07:54:11 10° SSE 07:57:41 63° E 08:00:40 13° N
Helios 1A 4.2 07:59:05 24° ESE 07:59:20 24° ESE 08:02:36 10° S
Cosmos 1980 Rocket 2.1 07:54:11 10° SSW 07:59:55 83° ESE 08:03:32 23° NNE
Tiangong 0.5 07:59:42 10° NW 08:00:41 11° NNW 08:01:12 11° NNW
Cosmos 1842 Rocket 3.6 07:58:37 12° N 08:02:35 57° E 08:06:58 10° SSE
S3M 4.2 07:57:46 11° NNE 08:03:33 48° E 08:09:27 10° SSE
SL-16 R/B 3.4 08:00:26 10° SSW 08:05:22 29° SE 08:07:26 23° E
CZ-4 R/B 2.9 08:05:09 10° SE 08:06:38 19° SE 08:06:38 19° SE
Cosmos 1238 Rocket 3.1 08:06:20 10° NNW 08:09:42 59° WSW 08:13:33 10° S
Cosmos 1151 Rocket 4.4 08:11:57 23° ESE 08:11:57 23° ESE 08:14:22 10° SSE
Cosmos 1066 Rocket 4.1 08:06:02 10° N 08:11:22 60° E 08:16:55 10° SSE
Cosmos 1271 Rocket 3.1 08:08:20 10° NNW 08:11:48 56° WSW 08:15:17 10° S
SPOT 5 3.2 08:07:43 10° SSE 08:12:24 44° E 08:14:03 33° NE
Lacrosse 5 rocket 2.8 08:09:47 10° WSW 08:13:06 29° SSW 08:15:28 15° SE
Cosmos 1408 Rocket 4.0 08:10:36 10° S 08:14:44 39° ESE 08:15:00 39° E
Cosmos 2322 Rocket 3.7 08:11:19 10° S 08:15:49 23° SE 08:17:42 20° ESE
USA 215 3.6 08:12:46 25° E 08:16:43 59° SSE 08:23:10 10° WSW
Gblst 52 Del rocket 4.0 08:11:09 10° WNW 08:16:50 82° NNE 08:20:00 27° ESE
TRAILBLAZER 4.4 08:19:45 10° NW 08:24:09 86° SW 08:28:35 10° SE
Meteor 2-4 Rocket 3.8 08:19:19 10° NNW 08:24:47 78° WSW 08:30:28 10° S
Cosmos 2369 3.7 08:20:22 10° SSW 08:26:11 74° ESE 08:28:13 41° NE
Cosmos 2360 Rocket 3.6 08:23:15 10° SSW 08:27:52 24° SE 08:29:17 22° ESE
Cosmos 2237 4.3 08:23:37 10° SSW 08:29:24 65° ESE 08:31:08 44° ENE
ATLAS 3B R/B 2.6 08:25:10 10° SW 08:31:26 66° SE 08:33:44 41° ENE
ERS-1 Rocket 4.1 08:27:55 10° SSE 08:31:06 28° ESE 08:31:06 28° ESE
CZ-4B R/B 4.3 08:28:11 10° SSE 08:31:38 27° ESE 08:31:38 27° ESE
In-Cosmos 22 4.3 08:32:48 44° NE 08:34:10 55° E 08:39:47 10° SSE
Cosmos 1743 Rocket 4.4 08:30:14 10° S 08:33:46 36° SE 08:33:46 36° SE
Cosmos 1500 Rocket 3.7 08:29:56 10° S 08:34:25 57° ESE 08:34:29 57° E
CSL-04 Rocket 3.5 08:30:33 10° SSE 08:35:55 63° ENE 08:37:37 41° NNE
CZ-4B DEB 4.5 08:30:41 10° SSE 08:36:02 45° E 08:36:03 45° E
IRIDIUM 104 4.3 08:35:06 10° S 08:40:27 83° W 08:42:46 35° N
CZ-4B R/B 3.8 08:37:29 10° SSE 08:41:16 74° SE 08:41:16 74° SE
Cosmos 1486 Rocket 3.9 08:37:53 10° SSW 08:43:17 78° ESE 08:44:19 58° NE
ATLAS 5 CENTAUR R/B 1.9 08:37:59 10° SW 08:44:03 90° WNW 08:44:59 62° NE
Cosmos 1805 Rocket 3.4 08:39:44 10° S 08:44:07 73° ESE 08:44:07 73° ESE
Cosmos 1758 4.0 08:45:16 10° S 08:47:54 43° S 08:47:54 43° S
Sich 1 3.6 08:51:04 10° SSW 08:55:12 52° W 08:55:51 47° NW
Meteor 1-18 Rocket 4.3 08:52:04 16° NNW 08:56:37 76° WSW 09:02:26 10° S
Cosmos 1818 4.3 08:51:31 10° SW 08:56:40 46° WNW 08:58:04 37° NNW
COSMOS 2406 4.3 09:00:51 30° SE 09:00:51 30° SE 09:03:57 10° SE
Cosmos 990 Rocket 4.3 08:58:16 10° SSW 09:03:16 54° SE 09:03:16 54° SE
Terra 2.9 09:00:32 10° SSE 09:03:24 34° SE 09:03:24 34° SE
Cosmos 1709 Rocket 4.4 09:00:07 10° SSW 09:06:18 62° W 09:09:16 32° NNW
Resurs 01 Rocket 4.3 09:11:52 10° SSW 09:15:02 19° WSW 09:18:11 10° WNW
Cosmos 2278 3.8 09:10:24 10° SSW 09:16:03 63° SE 09:16:03 63° SE
Cosmos 2074 Rocket 4.1 09:10:54 10° S 09:17:13 60° ESE 09:17:14 60° ESE
Cosmos 1295 Rocket 4.4 09:11:14 10° S 09:17:32 67° ESE 09:17:40 67° E
Meteor 1-31 Rocket 4.4 09:15:13 10° S 09:17:33 30° SW 09:17:33 30° SW
ATLAS 2AS CENTAUR R/B 3.1 09:11:42 10° NW 09:18:51 69° SW 09:26:15 10° SE
Cosmos 839 Rocket 3.9 09:12:55 10° NNW 09:19:54 79° NE 09:26:07 10° SE
Cosmos 2219 Rocket 3.2 09:18:29 10° SSW 09:23:32 34° SE 09:23:32 34° SE
MOS 1 4.2 09:18:59 10° SSE 09:24:39 83° ESE 09:24:39 83° ESE
USA 229 DEB 3.7 09:19:33 10° SW 09:25:54 53° WNW 09:26:30 51° NW
USA 229 3.7 09:19:37 10° SW 09:25:59 54° WNW 09:26:33 52° NW
Cosmos 2333 Rocket 2.2 09:24:30 10° SSW 09:30:04 77° SSE 09:30:04 77° SSE
Cosmos 2154 Rocket 4.0 09:27:18 10° S 09:33:16 67° SE 09:33:16 67° SE
Helios 1A 4.5 09:34:49 33° WSW 09:34:49 33° WSW 09:37:39 10° SSW
Cosmos 2082 Rocket 2.8 09:28:55 10° NW 09:34:29 54° SW 09:40:05 10° SSE
Feng Yun 1-1 Rocket 4.5 09:30:44 10° SSE 09:36:31 72° WSW 09:37:18 63° WNW
Cosmos 1354 Rocket 4.3 09:31:35 10° SSW 09:36:05 64° SW 09:36:05 64° SW
CZ-4 R/B 3.4 09:39:12 10° S 09:41:36 25° SW 09:41:36 25° SW
Cosmos 1980 Rocket 4.3 09:39:27 10° WSW 09:43:10 18° W 09:45:17 15° NW
SL-16 R/B 2.6 09:44:15 10° SSW 09:49:15 60° WSW 09:49:15 60° WSW
Lacrosse 5 rocket 3.8 09:47:28 10° SW 09:48:48 18° SW 09:48:48 18° SW
Cosmos 2184 Rocket 4.1 09:53:09 10° SSW 09:58:57 71° WSW 09:58:57 71° WSW
USA 215 3.3 10:00:07 67° WNW 10:00:07 67° WNW 10:06:16 10° WSW
Cosmos 2322 Rocket 2.7 09:54:51 10° SSW 09:59:28 58° SSW 09:59:28 58° SSW
ADEOS 4.3 09:57:57 10° S 10:02:25 50° SW 10:02:25 50° SW
Cosmos 2237 Rocket 4.3 10:02:18 10° S 10:05:52 17° SSE 10:06:28 16° SE
Aureole 1 Rocket 4.3 09:58:58 10° SSW 10:06:10 86° WSW 10:06:10 86° WSW
ERS-1 Rocket 4.2 10:06:32 10° S 10:10:56 39° WSW 10:10:56 39° WSW
Cosmos 2360 Rocket 2.9 10:06:48 10° SSW 10:11:01 51° SW 10:11:01 51° SW
CZ-4B R/B 4.0 10:08:30 10° S 10:13:27 46° WSW 10:13:27 46° WSW
Okean O Rocket 3.8 10:14:37 10° S 10:16:18 22° S 10:16:18 22° S
ATLAS 3B R/B 3.8 10:16:12 10° SW 10:20:57 31° WNW 10:20:57 31° WNW
ATLAS 5 CENTAUR R/B 4.3 10:21:52 10° WSW 10:24:12 16° W 10:24:12 16° W
CZ-4C R/B 3.4 10:38:52 49° SE 10:38:52 49° SE 10:43:38 10° SE
Terra 4.0 10:38:43 10° S 10:42:01 23° SW 10:42:01 23° SW
ACS3 Solar Sail 3.9 10:46:51 16° SE 10:46:51 16° SE 10:50:22 10° SSE
NOSS 3-4 (A) 4.3 10:52:52 10° SW 10:59:23 55° S 10:59:23 55° S
NOSS 3-4 (C) 4.3 10:53:16 10° SW 10:59:45 54° S 10:59:45 54° S
Cosmos 2219 Rocket 3.8 11:02:20 10° SW 11:05:13 29° SW 11:05:13 29° SW
ATLAS 2AS CENTAUR R/B 4.4 11:04:42 10° W 11:11:05 31° SSW 11:17:35 10° SE
Cosmos 2333 Rocket 4.5 11:09:57 10° SW 11:12:05 17° WSW 11:12:05 17° WSW
COSMOS 2428 4.3 11:12:11 10° SSW 11:15:13 32° SSW 11:15:13 32° SSW
Cosmos 2237 Rocket 3.9 11:45:31 10° SSW 11:48:14 28° SSW 11:48:14 28° SSW
